Wind_Speed
54 53 52 48 43 38 36 36 35 33 32 31 31 31 30 29 29 28 29 29 30 30 31 32 33 34 35 36 37 39 40 42 44 45 47 49 50 52 53 55 58 60 62 64 66 67 69 70 72 73 74 76 77 78 80 82 83 84 85 85 84 83 81 80 78 76 75 75 75 75 75 76 77 78 79 80 81 82 83 84 85 85 86 87 87 88 88 89
53 53 52 48 44 40 38 38 37 36 34 33 32 31 30 30 29 29 29 30 30 31 31 32 33 34 35 37 38 39 41 43 45 47 48 50 52 53 55 57 60 62 64 66 68 69 71 72 73 75 76 78 80 81 82 83 84 83 82 80 78 77 75 75 75 75 75 76 77 77 78 79 80 81 82 83 84 85 86 87 88 89 90 90 90 91 91 92
52 52 52 49 46 43 41 40 39 38 37 36 34 32 31 30 29 29 29 29 30 30 31 32 33 34 36 37 39 40 42 44 46 47 49 50 52 54 56 59 62 64 66 67 69 71 72 74 75 77 79 80 82 82 82 82 80 77 75 74 74 74 75 76 76 77 78 78 78 78 79 80 81 81 83 83 84 85 87 88 89 90 91 92 92 93 94 94
50 51 50 49 47 45 43 42 40 39 38 37 35 33 32 31 30 29 30 30 30 30 31 32 34 35 37 38 40 42 43 44 46 48 49 51 53 56 59 61 63 65 67 69 70 72 74 76 77 79 81 81 81 80 78 76 74 73 73 73 75 76 77 77 77 77 77 77 77 77 77 77 78 79 80 80 81 82 84 85 86 88 90 91 92 92 93 94
49 49 49 48 47 45 43 42 41 40 38 37 36 35 33 32 31 31 31 31 31 31 32 34 35 36 38 40 41 43 44 46 48 49 51 53 56 58 60 63 65 67 69 70 72 74 76 78 79 80 80 78 76 74 73 73 73 74 74 74 75 75 75 75 74 74 74 74 74 74 75 75 76 77 78 79 79 80 81 83 84 86 88 89 90 91 92 93
47 47 47 47 46 45 43 42 41 40 39 38 37 36 34 33 32 32 32 32 32 33 34 35 36 38 40 41 43 45 46 48 50 51 54 56 58 60 62 64 66 68 70 72 74 76 77 78 78 76 74 72 72 72 73 74 74 73 73 72 71 71 71 71 71 71 72 72 73 73 74 76 77 79 79 79 79 79 81 82 84 85 87 88 90 91 92 93
44 44 46 46 45 45 43 42 42 41 40 39 38 37 35 34 33 32 32 33 34 35 36 37 38 40 41 43 45 47 48 50 52 54 56 58 60 62 64 66 68 70 72 74 76 76 76 75 73 71 70 71 72 73 72 72 70 69 69 68 68 68 69 70 70 71 72 73 74 75 76 78 80 82 83 82 81 82 83 83 85 86 87 88 90 91 92 93
43 43 44 45 45 44 43 42 42 42 41 40 39 39 38 36 35 34 34 35 36 37 38 39 40 42 43 45 46 48 50 52 54 56 58 60 62 64 66 68 70 72 73 75 75 74 72 70 69 70 70 71 70 69 68 67 66 66 66 67 67 68 69 71 71 72 74 75 76 77 79 81 83 85 86 85 84 85 85 86 88 89 89 90 91 92 93 94
42 41 43 44 44 43 43 43 43 42 41 41 41 40 39 37 37 37 37 37 38 39 40 41 42 44 46 47 48 50 52 54 56 58 60 62 64 66 68 70 71 73 73 72 71 69 69 69 69 69 67 66 65 64 64 64 64 65 67 68 69 70 72 73 74 75 76 77 78 79 80 82 86 89 89 87 87 88 88 89 90 91 92 93 94 95 96 96
40 40 41 43 43 43 43 43 43 42 42 41 40 39 38 37 38 38 39 39 40 41 42 43 45 46 48 49 50 52 54 56 57 59 61 63 65 67 69 70 71 71 70 69 68 67 68 67 65 63 62 61 62 62 63 64 66 67 69 70 71 72 74 75 75 76 77 77 78 79 80 82 87 90 90 89 89 89 90 92 93 93 94 95 96 97 98 98
39 39 40 42 42 42 43 43 43 42 41 40 39 38 38 38 38 39 40 41 42 43 44 45 47 48 49 50 52 54 55 57 58 60 62 64 66 68 69 69 69 67 66 66 66 65 63 61 59 59 59 61 62 63 65 66 67 68 69 70 71 71 72 73 74 74 75 76 76 77 78 81 86 89 89 89 89 90 92 93 94 95 96 97 98 99 99 100
38 38 38 40 41 41 42 42 42 41 40 40 39 38 38 39 39 40 41 42 43 44 45 47 48 50 50 52 53 54 56 58 60 62 64 65 66 67 67 66 65 64 64 63 61 59 57 57 58 59 61 63 64 65 65 66 66 66 66 67 67 67 69 69 70 72 72 73 74 75 75 78 84 86 87 87 88 89 91 92 94 95 96 98 99 100 101 101
36 36 35 36 38 39 40 41 40 40 40 39 38 38 39 39 40 40 41 42 44 45 46 48 49 50 51 52 53 55 57 59 61 63 64 65 64 64 63 62 62 61 59 57 56 57 57 58 60 61 62 63 63 63 62 62 61 62 63 63 64 65 67 68 67 69 70 70 72 74 72 74 81 84 84 85 86 88 89 91 92 94 96 97 99 101 102 102
33 32 32 33 34 36 38 39 39 39 39 38 38 38 39 39 40 41 42 43 45 46 47 48 49 50 51 52 54 56 58 59 61 62 63 62 61 60 59 58 56 55 54 54 55 57 58 59 59 60 60 59 59 59 59 59 60 61 62 63 64 64 67 69 68 68 69 69 71 74 72 72 78 81 83 84 86 88 89 90 92 93 95 97 99 100 102 103
31 29 29 30 32 33 34 36 36 37 37 37 38 38 39 39 40 41 43 44 45 45 46 47 48 49 51 53 55 56 58 59 60 60 59 58 57 56 54 52 51 51 53 54 55 55 56 56 56 55 56 56 56 57 58 60 61 62 63 65 65 65 67 71 73 72 71 71 73 75 75 74 77 80 81 83 85 87 89 90 92 93 94 96 98 99 100 102
28 27 27 29 30 31 31 32 33 34 35 36 37 38 38 39 40 41 42 43 43 44 45 46 48 49 51 53 55 57 58 58 58 57 56 54 52 50 48 48 49 51 52 52 53 53 53 53 53 53 55 56 57 57 57 59 60 62 63 65 66 67 68 71 74 75 73 73 74 76 76 75 76 78 80 82 83 85 87 89 90 91 93 95 96 97 99 101
27 26 26 27 28 28 29 30 31 33 34 35 36 37 38 38 39 40 40 41 42 43 44 46 48 50 51 53 55 56 56 55 54 52 51 49 47 46 47 48 49 50 50 50 50 50 51 52 53 54 55 56 56 56 57 57 59 61 62 64 65 66 67 68 71 72 72 73 74 76 77 76 77 79 79 80 82 83 85 86 88 90 91 93 94 96 98 99
26 25 25 25 26 27 28 28 30 31 32 33 34 35 35 35 36 37 38 39 41 42 45 47 49 50 51 53 53 53 52 51 49 47 46 44 44 45 47 47 48 48 48 48 48 48 49 51 52 53 55 55 56 57 58 58 59 59 60 62 63 63 65 67 68 69 69 71 73 75 76 76 77 80 80 81 82 83 84 86 87 88 90 91 93 95 96 98
25 23 22 23 23 24 25 26 27 28 29 30 30 31 32 33 34 35 37 39 40 42 45 46 48 49 50 50 49 48 47 45 44 42 42 43 44 45 46 46 45 45 46 46 47 48 49 51 53 54 56 57 58 59 60 60 60 60 60 61 61 61 63 66 68 68 68 69 71 73 74 75 77 79 82 83 85 85 86 87 88 89 90 91 92 93 94 96
24 22 21 21 21 22 23 24 25 25 26 26 27 28 29 31 33 35 37 38 40 42 44 45 47 47 47 47 46 44 42 40 39 40 41 42 43 44 44 43 43 44 45 46 48 50 52 54 55 57 58 59 60 60 60 60 60 60 61 62 62 62 62 65 68 68 69 69 70 73 75 75 77 79 81 84 86 87 88 89 89 90 91 91 92 93 94 94
23 22 21 20 20 21 22 23 23 23 24 24 25 27 28 31 33 35 37 38 40 42 43 44 43 43 42 41 39 37 37 37 38 39 40 41 41 41 41 41 42 43 46 48 50 53 55 56 57 59 59 60 60 61 61 61 61 61 61 62 63 64 63 66 69 69 70 71 71 73 75 75 77 78 80 83 84 86 87 88 89 89 90 91 91 92 92 92
23 22 21 20 21 21 22 22 22 22 22 23 25 27 29 31 33 34 36 38 40 40 40 40 39 38 36 34 32 32 34 35 36 37 38 38 39 39 39 40 42 45 49 51 53 55 56 57 58 59 60 61 62 62 63 64 64 63 63 64 65 66 64 65 68 70 71 72 70 72 74 74 76 77 79 81 82 84 85 86 87 88 88 89 89 89 88 88
22 21 21 21 21 20 20 20 20 20 21 23 25 27 29 31 32 34 36 37 37 37 36 36 34 32 30 30 31 33 34 35 35 35 36 36 37 39 40 43 45 49 52 54 55 56 57 58 60 61 62 63 64 65 66 67 68 67 66 67 67 68 68 65 65 67 69 71 70 70 72 72 74 76 77 79 80 81 82 84 85 86 86 86 86 85 85 85
22 21 20 20 19 19 18 18 18 20 22 24 25 27 28 30 32 33 34 33 33 33 31 29 27 27 28 30 31 32 33 33 33 33 35 37 39 42 44 47 50 52 53 55 57 58 59 61 63 64 66 67 67 68 68 68 69 70 70 70 69 69 70 69 68 66 68 71 71 71 70 70 72 75 76 77 77 78 79 81 82 83 83 83 83 83 83 84
21 20 19 18 17 17 17 17 18 20 22 23 24 26 28 29 30 30 30 30 29 27 25 24 25 26 28 29 29 30 30 31 32 34 36 39 42 45 48 50 51 53 55 57 59 61 63 65 67 68 69 70 70 70 70 70 70 71 71 71 71 70 71 72 72 70 69 70 72 72 72 71 72 74 75 75 74 75 77 78 80 80 80 80 81 81 82 82
20 18 17 16 16 16 16 17 18 20 21 23 24 26 26 26 26 27 27 25 22 20 20 22 24 25 26 26 27 28 29 31 33 36 40 43 46 49 50 51 53 56 59 61 63 66 67 69 70 72 72 72 73 73 73 73 72 72 72 72 73 72 72 73 73 73 71 71 73 74 74 73 72 73 74 73 73 74 75 76 76 77 77 78 80 80 81 81
18 17 16 14 14 15 15 16 18 19 21 22 23 23 22 23 24 23 20 18 17 18 20 22 23 23 24 25 26 27 30 33 36 39 42 45 48 50 52 55 58 61 64 65 67 69 71 71 73 74 74 75 75 75 75 75 75 75 74 74 74 73 73 74 74 74 73 72 73 74 74 73 71 72 73 72 73 73 73 74 74 75 76 77 78 79 80 80
15 14 13 13 13 13 14 16 17 19 19 19 19 19 20 20 18 16 15 15 17 19 20 21 21 22 23 25 26 29 33 37 40 42 45 48 50 53 56 59 62 65 68 70 69 71 72 72 74 75 76 77 77 78 78 77 77 77 77 77 76 75 74 75 75 75 75 74 74 74 75 73 69 69 71 71 71 71 70 71 72 73 74 75 77 77 78 79
13 12 11 11 12 13 14 15 15 16 16 16 17 17 16 14 12 12 14 16 16 17 17 19 20 22 23 25 29 33 37 39 42 44 47 50 53 56 59 62 64 67 71 72 71 71 73 74 75 76 77 78 79 80 81 81 81 80 80 79 78 77 76 76 76 75 74 74 73 74 74 72 67 65 68 69 68 68 68 69 70 71 72 73 74 74 75 76
11 10 10 10 11 12 12 12 13 13 14 14 14 11 10 10 11 13 14 14 15 15 16 18 19 21 24 28 32 36 39 41 44 47 50 54 57 60 62 65 67 68 71 74 74 73 74 76 76 77 78 79 80 82 84 84 84 83 82 81 80 78 77 77 77 75 74 72 72 73 73 72 67 64 66 67 66 67 67 68 68 69 70 70 71 72 73 73
9 8 8 9 9 9 10 10 11 12 11 10 8 7 8 10 11 12 12 13 15 16 17 18 20 23 28 32 35 38 41 44 48 51 54 57 60 62 63 64 65 66 68 72 74 74 74 76 77 78 80 80 81 84 86 87 87 87 86 85 82 79 76 76 76 74 74 73 72 72 71 70 68 65 65 65 64 66 67 67 68 67 67 68 69 70 71 71
7 7 7 7 7 8 8 9 9 8 6 5 5 7 8 9 10 11 12 13 15 16 18 20 24 29 32 34 36 39 43 46 49 52 54 57 58 60 61 62 63 64 66 69 73 75 75 77 79 80 81 82 83 84 85 87 89 90 90 89 88 84 80 78 76 73 72 73 74 73 71 69 67 66 65 65 65 66 68 68 68 67 67 67 68 68 69 69
6 6 5 5 6 6 6 6 4 3 4 5 5 7 8 9 10 11 12 14 16 18 21 25 29 32 33 35 38 41 44 47 50 53 55 58 60 62 64 65 66 67 69 71 74 77 77 78 80 82 84 86 87 88 88 89 92 93 94 94 94 93 89 86 83 77 73 74 75 75 74 70 67 65 65 65 65 65 66 67 67 65 65 65 66 66 66 67
5 4 3 4 4 4 2 1 4 5 6 5 6 8 9 9 10 11 13 15 18 21 25 29 31 32 34 36 39 43 46 49 52 54 58 61 63 65 66 67 69 70 71 73 76 79 80 81 83 85 87 89 91 93 94 94 96 97 98 98 98 98 96 93 91 86 80 76 76 76 75 72 67 64 64 64 64 64 64 64 64 63 62 62 63 64 64 65
2 2 2 2 1 2 5 7 7 7 5 5 7 9 9 9 10 12 15 17 20 24 28 30 30 32 35 38 41 44 47 50 53 56 59 62 64 66 67 68 70 71 72 74 76 80 83 85 86 88 90 92 94 96 97 98 99 100 100 101 101 101 99 95 92 89 84 79 76 77 76 72 68 66 65 65 64 65 64 64 64 63 62 62 64 64 65 65
1 1 2 4 6 7 9 9 8 6 4 6 10 10 9 10 12 14 17 19 23 27 30 31 32 35 38 40 43 46 49 52 55 58 60 63 65 67 68 70 71 72 74 75 77 80 84 87 88 90 92 94 96 99 101 102 103 103 103 103 102 101 101 98 92 88 83 78 76 77 77 72 70 69 67 67 66 65 65 64 65 65 64 64 64 64 64 65
3 5 7 9 10 10 10 9 7 5 5 9 10 8 9 11 14 16 19 23 27 30 31 33 36 38 41 43 46 49 52 55 58 60 62 64 66 68 70 71 72 74 75 77 79 81 84 87 90 91 93 95 97 100 103 104 106 106 106 106 103 100 101 102 99 92 87 82 78 80 82 78 75 74 72 70 69 66 64 63 62 63 63 63 63 63 63 63
8 10 11 11 11 11 10 8 7 6 9 12 9 8 10 13 16 19 23 27 30 31 33 35 38 40 43 46 49 52 55 57 60 62 64 65 68 70 71 72 72 75 77 79 81 83 85 88 91 93 95 97 98 100 102 104 106 108 108 108 107 104 102 103 103 100 95 91 85 83 85 83 80 78 77 73 71 67 62 59 58 58 60 61 61 60 60 60
12 13 12 11 11 12 10 9 8 9 12 11 8 9 13 16 19 23 27 30 31 33 35 37 40 43 45 48 51 54 56 58 61 64 65 67 69 72 73 73 74 76 79 81 83 85 87 89 92 95 97 98 99 100 101 103 105 107 108 109 109 107 105 104 105 104 100 97 91 86 86 86 84 82 79 75 72 68 64 61 59 58 57 58 59 58 58 57
15 14 13 11 12 12 10 9 11 13 13 9 8 12 17 19 23 27 30 31 33 35 37 40 42 45 48 51 53 55 57 60 63 66 67 68 70 73 74 74 75 78 81 83 85 87 89 91 93 96 98 100 102 103 104 106 107 108 110 111 111 110 108 104 103 103 100 97 95 93 89 87 85 83 80 77 74 71 68 66 64 63 61 61 61 61 59 58
15 14 12 11 12 11 9 11 14 13 9 7 11 16 19 23 27 30 31 32 35 37 40 43 45 48 51 53 55 56 58 61 65 68 69 70 72 74 74 74 76 79 82 85 88 89 90 91 93 96 98 100 102 104 106 108 110 112 113 114 114 114 112 109 105 103 100 96 94 94 92 89 86 84 82 80 78 76 73 71 69 68 66 64 63 63 62 60
16 14 13 13 12 11 11 14 13 9 7 10 15 19 23 27 30 31 32 34 37 40 42 45 47 49 52 54 56 57 59 63 67 70 71 72 73 75 75 75 77 80 84 87 91 92 92 92 93 96 99 101 102 103 105 106 109 112 113 114 115 116 116 115 112 109 105 97 90 88 89 89 88 86 83 82 80 79 79 76 72 69 67 64 62 62 62 61
17 15 13 13 12 12 15 14 9 7 10 15 18 22 26 30 31 32 33 36 39 42 44 46 48 50 53 54 56 57 60 64 68 71 72 73 75 76 76 78 80 83 86 90 94 96 96 95 95 95 97 99 101 102 105 108 110 113 115 115 116 117 117 117 115 111 107 101 91 85 86 87 87 87 86 85 83 81 80 78 73 69 65 63 62 61 59 58
17 14 13 13 13 14 16 12 8 10 14 17 21 25 29 30 31 33 35 37 40 43 45 47 49 51 53 54 55 58 61 64 68 70 73 75 76 77 78 80 83 85 89 94 97 99 100 100 101 101 100 101 102 104 106 109 112 115 118 118 118 118 117 115 112 108 105 102 95 86 83 85 86 86 86 85 83 82 80 77 72 68 64 62 60 59 58 56
16 14 13 13 13 15 14 10 10 14 17 20 24 28 30 31 32 34 36 39 41 43 45 47 48 50 52 54 55 58 61 64 67 70 73 76 78 79 80 82 85 88 92 96 100 101 102 103 106 108 110 111 112 113 113 114 115 117 119 120 119 119 118 115 111 107 103 102 99 93 87 87 86 85 82 80 79 79 79 76 72 69 65 62 60 58 57 55
15 14 14 13 13 14 12 10 12 16 19 23 26 29 30 31 33 35 37 40 41 43 45 46 47 50 52 53 55 58 61 64 66 69 72 75 78 80 82 84 86 90 94 98 101 102 103 105 108 111 113 115 116 118 119 119 119 119 119 120 120 119 119 116 114 110 105 100 101 100 96 93 90 87 83 80 78 78 78 75 72 68 65 63 61 60 58 56
15 14 13 13 13 12 11 11 14 17 20 24 27 29 30 32 34 36 38 40 42 43 44 45 47 49 51 52 54 57 61 63 65 67 71 74 78 81 83 86 88 91 94 98 101 103 104 105 107 111 113 115 117 118 120 121 121 121 121 121 121 119 118 117 115 113 109 104 102 101 98 96 94 92 88 84 80 79 79 77 73 70 67 65 63 62 59 56
15 13 13 12 12 12 11 12 16 19 22 25 27 29 30 32 34 36 38 40 41 42 44 45 46 48 49 51 52 56 60 63 64 66 69 72 76 80 83 86 89 91 94 96 100 104 105 105 106 109 112 115 117 118 120 120 121 122 122 122 122 121 120 118 117 116 115 112 108 104 101 99 97 93 89 85 83 83 83 81 77 73 69 66 64 61 58 55
14 13 12 11 11 12 12 14 16 20 23 25 27 28 30 31 33 35 37 39 40 42 43 44 45 46 48 49 50 53 58 61 62 64 67 70 74 79 83 86 89 92 94 96 98 103 106 107 108 109 111 114 116 118 120 120 121 122 123 122 122 122 122 121 120 119 118 116 113 108 105 103 100 96 92 88 86 86 86 84 80 74 69 66 63 60 57 54
13 12 12 11 12 12 12 14 17 20 23 25 26 27 29 31 32 34 36 38 39 41 42 43 44 45 46 48 49 52 56 59 61 63 66 69 73 77 82 85 88 91 94 96 98 101 104 108 109 110 111 113 115 117 119 121 122 122 123 124 124 124 124 124 123 122 119 117 115 111 107 103 101 100 97 93 89 87 86 84 80 76 70 66 64 61 57 54
13 12 12 12 12 12 12 14 18 20 22 24 25 26 28 30 31 33 34 36 38 40 41 42 43 45 46 47 49 52 55 58 60 62 65 68 72 76 81 85 88 91 93 96 98 100 103 107 110 112 113 114 115 117 119 120 122 122 123 124 125 127 127 127 127 126 123 120 116 112 108 104 103 103 101 97 93 89 87 84 81 77 74 69 66 63 59 56
13 12 12 12 12 12 13 15 18 20 21 23 24 25 27 28 30 31 33 35 37 39 41 42 43 45 46 47 49 52 55 58 60 63 65 68 72 75 80 84 88 90 92 95 97 100 103 106 110 114 116 117 117 118 119 120 121 123 125 127 128 129 130 130 129 127 126 124 121 117 112 109 107 106 104 101 96 92 89 86 83 79 76 72 68 64 61 57
Wind_Direction
209 212 216 218 218 218 220 222 223 224 225 227 230 233 235 238 242 246 250 253 256 261 265 268 271 275 278 280 281 282 282 282 281 282 282 283 283 284 285 286 287 288 289 289 289 289 289 289 289 289 289 289 289 289 289 289 289 289 289 289 289 289 288 288 287 286 285 284 284 283 283 282 281 280 279 278 277 276 276 275 274 274 273 272 271 270 269 269
208 211 215 218 219 219 221 224 225 226 227 230 233 236 238 241 245 249 253 257 261 265 268 272 275 279 281 282 283 283 283 282 282 282 283 284 285 286 287 288 289 290 290 290 290 291 291 291 291 291 291 291 291 291 291 291 291 291 291 291 291 290 290 289 289 288 287 287 286 286 285 284 283 282 281 280 280 279 278 277 276 275 274 274 272 272 271 270
208 210 213 216 218 220 223 226 228 229 231 233 237 240 242 244 248 253 257 261 265 268 272 275 278 280 281 282 282 283 283 283 284 285 285 286 287 288 289 290 290 290 291 291 291 292 292 292 292 292 292 292 293 293 293 293 293 293 293 293 293 292 292 291 291 290 289 288 288 287 286 285 284 283 282 281 280 280 279 279 278 277 276 275 275 274 273 272
207 210 213 215 217 219 222 226 230 233 234 236 240 243 245 247 251 255 259 263 267 271 275 276 278 279 281 282 283 284 285 286 287 288 288 289 289 290 290 290 291 291 291 291 292 293 293 294 294 294 294 294 295 295 295 295 295 295 295 295 294 294 293 292 292 291 290 289 289 288 287 286 285 283 283 282 281 280 280 279 279 278 278 277 276 275 275 274
206 208 212 216 218 219 221 224 229 233 236 238 241 244 246 249 252 257 261 264 269 273 275 277 278 280 281 283 285 286 288 289 289 290 291 291 291 291 291 291 291 291 292 293 293 294 295 295 295 296 296 296 297 297 297 297 297 297 296 296 295 294 294 293 292 292 291 291 290 289 289 288 286 285 284 283 282 282 281 281 280 279 278 278 277 277 276 276
205 206 211 215 219 221 222 224 227 232 236 239 242 245 248 250 254 259 263 266 270 273 275 277 279 281 283 286 287 288 290 290 291 292 293 293 292 292 292 292 292 293 293 294 295 295 296 296 297 298 298 299 299 299 299 298 298 298 297 296 296 295 295 295 294 294 294 293 293 292 291 290 288 287 286 284 284 283 282 281 280 279 279 278 278 277 277 276
206 205 209 215 218 221 224 225 228 231 235 239 242 245 248 252 256 262 266 268 270 273 275 278 280 283 286 288 289 290 291 292 292 293 293 293 293 293 293 293 293 294 295 295 296 297 298 299 300 300 301 301 300 300 300 299 299 299 299 298 298 298 297 297 296 296 295 294 293 292 291 290 288 287 285 285 285 284 282 282 280 280 279 278 277 277 276 275
207 205 208 214 218 221 224 227 229 232 235 239 242 246 250 254 258 262 267 269 270 272 275 279 282 286 289 290 291 291 292 293 293 294 294 294 294 294 294 294 295 295 296 297 299 300 301 302 302 302 302 301 301 301 301 302 302 302 301 300 300 299 298 297 296 295 294 293 292 291 290 289 287 286 285 285 284 283 282 281 280 279 278 278 277 276 276 275
208 205 207 213 218 221 225 228 231 234 237 240 244 247 252 256 259 262 266 268 270 272 276 280 284 288 291 291 292 293 293 293 294 294 294 294 294 295 295 296 297 298 299 301 302 303 303 303 303 303 303 303 303 304 304 304 303 302 301 301 300 299 297 296 295 294 293 292 291 290 288 287 286 285 284 285 284 283 282 280 279 278 277 277 276 275 275 274
208 206 207 212 217 221 225 229 232 235 239 242 246 250 254 257 260 262 265 267 270 274 278 282 285 289 291 292 292 293 293 294 294 294 294 295 295 296 297 299 300 302 303 304 304 304 304 305 305 305 306 306 306 305 305 304 303 302 301 300 299 298 296 295 294 292 291 290 289 288 287 285 284 283 284 284 283 282 281 279 278 278 277 276 275 274 274 273
207 208 208 211 216 220 225 229 233 237 240 244 248 251 255 258 260 263 265 268 272 276 280 283 286 289 291 292 293 293 293 294 294 295 295 296 297 299 301 302 303 304 305 305 305 306 306 307 307 308 308 307 307 306 305 304 303 301 300 299 298 296 295 294 293 291 290 290 288 287 286 285 283 283 284 284 283 282 280 279 279 278 277 276 275 274 273 273
204 208 209 212 216 220 224 229 233 237 241 244 248 251 255 258 261 264 266 270 273 277 281 284 287 290 291 292 293 293 294 294 295 296 297 299 301 303 304 305 305 306 306 307 307 308 309 309 310 310 309 308 307 306 305 303 301 300 299 298 297 295 294 293 292 291 290 290 289 287 286 285 284 284 284 283 282 281 280 279 279 278 278 277 276 275 274 274
199 207 211 213 216 220 225 230 233 237 241 244 248 251 255 258 262 265 268 272 275 279 282 286 288 290 291 292 293 293 294 295 297 298 300 302 304 305 306 307 307 308 308 309 311 312 312 312 312 311 309 307 305 304 303 302 300 299 298 297 296 295 294 292 292 291 290 290 288 287 285 284 283 283 283 282 281 280 279 278 277 277 276 276 275 275 275 274
194 203 210 213 218 221 225 230 233 237 241 244 248 251 255 259 263 267 270 274 277 281 284 287 289 290 291 292 293 295 296 298 300 302 303 305 307 307 308 308 309 310 311 313 314 314 314 312 311 309 307 305 304 303 303 301 299 298 298 298 298 297 297 295 293 292 291 291 289 287 286 283 282 282 281 280 279 278 277 276 276 275 275 274 274 274 274 273
192 198 207 213 219 222 226 230 234 238 241 245 248 252 257 260 264 268 272 275 279 282 285 287 289 290 292 294 295 297 298 300 303 305 306 307 308 308 309 310 312 314 315 315 314 313 311 309 307 306 305 304 303 302 301 301 301 301 301 301 300 299 298 297 296 294 293 293 291 289 288 286 284 283 282 280 279 278 277 277 276 275 274 273 273 273 272 272
193 197 206 213 219 223 227 231 235 238 242 246 249 254 258 262 266 270 274 278 281 283 285 288 289 291 293 295 297 299 302 304 306 307 308 308 308 310 312 314 315 316 315 313 311 309 308 307 306 305 303 302 302 302 303 303 303 303 302 301 300 300 299 299 299 298 297 296 295 293 291 290 288 286 284 282 281 280 279 278 277 276 275 274 274 273 272 271
195 198 206 213 219 224 228 232 235 239 243 247 252 256 260 265 269 273 276 279 282 285 287 289 291 292 295 297 300 303 305 306 307 307 308 309 312 314 315 316 316 314 313 311 310 310 310 309 308 307 307 308 309 309 309 308 307 306 305 304 304 303 303 302 301 300 300 299 297 296 295 294 291 289 287 285 283 281 280 278 278 277 276 275 275 274 273 272
197 199 206 212 219 225 229 233 238 242 246 250 255 260 264 268 271 275 278 281 284 286 288 291 292 295 298 301 304 305 306 307 308 309 311 314 316 317 316 315 313 312 311 311 311 312 312 312 314 315 317 317 317 317 315 314 313 313 312 311 310 309 307 305 303 302 301 300 298 297 296 295 294 292 290 287 285 283 282 280 278 277 276 276 275 275 274 274
198 199 206 212 219 226 231 236 240 245 249 254 258 262 266 270 274 277 280 283 286 288 291 293 296 299 302 304 306 307 309 311 312 314 316 317 317 316 314 314 313 314 314 315 317 318 320 322 324 325 324 324 323 323 322 321 320 319 318 316 314 313 310 308 306 305 303 301 300 298 297 296 295 294 293 291 290 288 287 285 283 282 280 279 278 278 277 277
198 200 206 212 219 226 232 238 242 247 252 256 260 265 270 274 277 280 282 285 288 290 293 297 300 303 306 308 309 311 313 315 317 318 318 316 315 313 314 315 317 319 322 325 328 330 332 332 331 330 329 329 328 327 326 325 325 324 322 320 317 316 314 311 309 308 307 305 303 302 300 299 298 297 295 294 292 291 289 288 287 286 284 283 282 281 280 280
198 202 207 213 220 227 233 238 243 248 253 259 265 270 274 277 279 282 285 288 291 294 297 301 304 306 308 311 313 315 317 318 319 317 315 313 313 314 317 321 325 329 333 335 338 338 336 335 334 333 332 332 331 330 329 328 328 327 325 323 321 319 318 316 313 313 311 308 307 305 303 302 300 297 295 293 292 290 289 289 288 287 286 286 285 284 283 282
199 204 210 216 222 228 233 238 244 251 257 264 269 273 276 279 282 285 288 292 295 298 302 305 308 310 312 314 316 317 318 317 315 312 313 314 317 322 327 333 337 340 341 341 342 341 338 337 336 335 335 334 334 334 333 332 332 331 329 326 325 323 322 320 318 316 313 310 309 306 304 302 300 298 295 294 292 292 291 291 290 290 289 288 287 287 286 285
200 206 212 217 223 229 235 242 249 256 262 266 270 274 277 281 285 289 293 296 300 304 308 310 312 314 315 316 318 319 317 315 315 316 320 324 330 336 341 345 346 346 345 343 343 342 340 339 339 338 339 338 338 338 337 337 336 335 333 330 329 327 325 323 320 318 315 312 310 307 305 303 301 298 296 295 295 295 295 294 293 292 291 291 291 290 289 287
200 206 211 217 224 231 239 246 252 258 263 267 272 277 282 286 290 294 297 301 306 309 311 312 314 317 318 320 320 318 318 319 322 327 333 339 345 348 350 351 350 348 346 345 345 344 342 342 343 342 342 342 342 341 341 341 340 338 337 334 333 330 328 325 323 321 319 316 313 310 307 305 302 300 299 299 299 299 298 296 295 294 295 295 294 293 291 289
197 203 210 217 225 233 241 248 254 260 265 271 277 282 287 291 294 298 303 309 313 313 315 317 320 322 322 321 321 320 324 330 336 341 347 350 352 352 353 352 351 350 348 348 348 347 346 346 346 345 345 345 344 344 344 344 343 341 339 337 335 334 331 328 326 324 322 320 316 313 311 309 307 305 305 304 304 302 299 298 298 299 298 297 295 293 293 292
195 202 210 217 226 234 243 251 258 264 271 277 283 287 290 294 300 306 312 316 317 316 319 322 323 323 322 323 325 330 337 344 350 354 355 355 355 354 353 352 353 353 352 350 350 350 349 349 348 347 347 347 347 347 347 347 346 344 342 340 339 337 335 331 328 327 325 323 320 317 315 313 312 311 309 308 306 303 302 302 302 301 299 297 295 295 294 293
196 203 212 220 229 238 247 256 264 271 278 282 286 290 296 303 310 314 318 320 321 321 323 324 325 325 327 331 336 343 351 356 359 359 358 357 356 355 354 355 356 356 355 353 352 352 351 350 349 349 349 349 349 349 349 349 348 346 345 344 342 340 337 333 331 330 329 327 323 320 317 315 316 315 312 310 308 306 306 305 303 301 299 298 297 296 296 294
198 206 213 222 233 244 254 263 271 277 281 285 290 298 307 313 317 321 325 328 328 327 328 329 331 334 338 343 350 357 1 3 2 1 0 359 358 357 357 357 356 356 356 355 354 353 352 351 351 351 351 351 351 351 351 350 350 349 348 347 345 343 340 335 334 333 332 329 325 322 318 318 319 317 313 311 309 309 308 305 303 301 300 299 298 297 296 295
197 205 215 227 241 253 262 269 274 278 284 292 302 311 317 322 326 330 332 332 331 330 332 335 339 343 349 357 3 7 6 6 4 2 2 1 1 0 359 358 357 357 356 355 354 354 353 353 352 352 352 353 352 352 352 352 351 351 350 350 349 347 343 338 336 336 334 331 327 323 320 320 321 318 314 313 312 311 308 305 303 302 300 299 298 297 296 295
197 209 224 237 248 256 264 271 277 285 296 306 315 323 332 338 339 336 333 332 333 334 337 340 344 350 360 7 10 9 7 6 6 5 5 4 3 2 0 360 359 358 356 354 354 355 354 353 353 352 353 354 354 354 354 353 353 352 352 352 351 350 347 342 340 339 336 333 329 324 322 322 323 322 318 316 315 312 309 307 305 303 302 302 300 299 297 296
200 214 227 238 247 257 269 279 289 300 310 320 336 347 350 349 341 334 335 339 341 343 345 349 357 6 13 14 12 10 8 8 8 8 7 5 4 3 1 1 1 360 358 355 354 355 355 354 354 354 354 355 356 357 357 355 354 354 353 353 352 351 350 345 342 342 339 335 331 327 326 326 326 326 322 320 318 314 311 309 308 307 306 304 302 300 299 298
196 210 225 240 256 272 285 295 306 316 329 359 11 3 356 349 340 339 345 349 349 351 357 6 16 20 19 16 12 11 11 11 11 10 8 6 5 3 2 2 1 1 0 358 356 356 357 356 356 356 356 356 357 359 359 358 356 356 355 354 352 351 350 347 344 344 342 339 334 331 330 330 330 329 326 323 320 317 315 313 312 311 309 307 305 303 301 299
197 216 237 259 278 290 299 311 328 3 40 37 15 6 2 351 347 351 354 356 360 7 16 22 25 23 19 16 14 14 14 13 12 10 8 7 5 4 3 2 1 0 0 360 357 356 357 358 358 358 358 357 358 358 359 359 358 357 357 357 354 352 351 349 346 346 346 344 339 334 333 333 334 332 328 325 322 319 317 315 313 313 311 308 305 303 301 298
205 228 258 282 295 303 321 52 82 73 58 33 14 16 9 355 356 0 3 9 17 24 30 30 27 22 18 16 16 16 15 14 13 11 9 8 7 5 3 2 1 1 1 1 359 357 357 358 359 359 359 359 359 359 359 359 359 359 359 359 358 355 353 351 349 347 348 348 343 337 335 336 337 334 329 326 324 321 319 318 316 315 312 308 305 303 301 300
212 254 278 303 5 111 110 100 86 71 54 31 26 24 9 360 7 12 16 24 30 34 34 31 26 22 20 19 18 18 17 16 13 12 10 9 8 6 4 3 2 1 2 2 1 360 358 359 360 0 0 0 360 360 360 0 1 1 1 1 0 358 354 352 351 349 348 350 346 339 337 338 338 336 332 329 328 326 325 323 320 318 315 312 309 307 305 304
201 181 121 111 119 118 104 89 76 68 55 39 34 24 8 10 19 23 29 35 37 36 33 28 24 22 21 20 20 20 19 17 14 12 11 9 8 7 5 4 3 2 3 2 3 2 1 0 1 2 2 2 1 1 1 1 1 1 2 2 2 360 356 352 352 350 349 351 350 341 338 341 341 338 336 334 333 331 329 328 325 322 318 315 311 310 308 307
136 126 120 120 119 106 91 82 78 71 52 45 37 21 15 23 29 34 39 42 40 36 31 27 24 23 22 22 22 22 19 17 15 14 12 10 9 8 6 5 4 3 3 3 4 4 4 2 2 3 3 3 3 3 3 2 2 2 2 2 2 1 359 354 352 352 350 352 354 347 342 344 343 340 340 338 336 335 334 331 327 322 319 315 313 312 311 310
122 121 121 120 111 97 88 83 80 66 53 49 37 21 26 34 39 44 46 44 39 35 31 28 26 26 26 26 24 22 20 18 16 15 13 11 10 9 8 6 5 4 4 4 5 5 5 4 3 3 4 4 3 4 4 3 2 2 2 2 1 1 1 358 354 353 352 352 355 352 345 345 345 343 342 341 339 337 336 332 328 323 319 316 315 314 314 314
120 117 114 112 104 97 91 84 77 63 55 51 35 30 39 44 49 51 48 43 38 34 32 30 29 30 29 28 25 23 20 19 17 15 13 12 11 10 9 8 7 6 5 5 6 6 6 6 5 5 4 4 3 3 4 3 3 2 2 2 2 2 2 1 358 356 354 353 354 353 349 346 346 345 343 342 340 339 337 334 331 327 323 320 318 318 318 318
116 111 108 106 99 96 96 84 69 60 58 52 36 42 49 53 55 52 47 43 38 36 35 34 33 32 30 28 26 23 21 19 17 16 14 13 12 11 10 9 8 8 7 6 7 8 8 7 7 7 6 5 4 3 2 3 2 2 3 3 3 2 3 3 1 359 357 355 354 353 351 348 347 345 344 343 343 342 340 339 336 333 330 327 325 324 323 322
109 105 103 100 96 100 99 77 64 62 62 51 45 53 58 59 56 52 47 43 40 38 37 36 34 32 30 27 25 23 22 20 18 16 15 14 13 11 11 10 10 10 9 8 8 9 9 9 9 8 7 6 5 4 2 2 3 3 4 4 4 3 3 3 3 2 360 358 357 354 351 348 347 347 346 346 346 345 343 342 340 337 334 331 328 327 326 326
104 99 96 94 98 102 89 73 70 73 65 54 56 62 63 61 56 51 47 43 41 39 38 36 34 32 29 27 25 23 22 20 18 17 16 15 13 12 12 12 11 11 10 9 9 9 9 9 10 10 10 9 8 7 6 5 6 6 5 5 5 4 4 3 3 3 2 0 359 356 352 350 349 348 348 349 349 348 346 344 342 339 335 333 330 329 328 328
98 95 94 95 97 91 82 81 86 79 63 60 64 67 65 60 55 50 46 43 41 39 38 36 33 31 29 26 24 23 21 20 19 18 17 16 15 15 14 13 12 12 12 11 10 9 9 9 10 11 12 11 10 10 10 9 8 8 6 6 6 6 6 5 3 3 2 0 359 359 356 352 351 351 351 351 351 350 348 345 343 340 337 334 333 331 330 329
97 96 96 94 90 87 89 94 89 71 66 67 70 69 64 58 53 49 45 42 40 39 37 34 32 29 27 25 23 22 20 19 18 18 18 17 16 16 15 14 14 14 13 13 12 10 9 8 9 9 10 10 9 9 9 9 9 9 8 7 7 6 6 6 4 3 3 1 359 360 359 357 354 354 354 353 352 350 348 345 343 341 339 337 335 334 332 330
102 101 96 93 90 93 97 96 78 69 69 72 72 68 61 56 51 47 44 41 39 37 35 32 30 27 25 24 22 20 19 18 17 17 17 17 17 16 16 15 14 14 14 13 12 11 10 9 9 9 9 9 9 8 8 9 10 10 9 7 7 7 6 6 5 4 4 4 1 0 1 0 358 357 356 355 353 351 349 347 345 344 343 340 338 336 335 334
106 101 97 96 97 97 96 86 73 71 74 75 72 64 58 53 49 46 43 40 37 35 33 30 28 25 23 22 21 19 18 17 16 16 16 16 16 16 16 15 15 15 15 14 14 13 12 11 10 10 10 10 10 10 10 10 10 10 10 8 7 7 6 6 6 5 5 6 5 3 2 1 360 358 358 357 356 353 351 349 348 347 345 343 341 340 339 338
104 101 100 102 102 99 93 81 73 75 79 76 69 62 56 52 47 44 41 38 35 33 31 28 26 23 21 20 19 17 16 15 14 14 14 15 15 15 16 15 15 15 15 14 14 14 13 12 11 11 11 11 11 11 11 11 11 10 10 8 7 7 6 6 7 6 6 7 8 6 4 2 1 359 358 358 358 356 354 353 351 351 349 347 345 343 342 341
104 103 104 106 106 100 90 79 76 80 81 74 65 59 54 49 45 42 38 35 32 30 28 26 23 21 20 18 17 16 14 13 12 12 13 13 13 14 14 14 14 14 14 14 14 14 13 12 12 11 11 11 12 12 11 11 11 10 10 9 8 7 7 7 7 8 8 8 8 8 6 4 3 1 359 359 360 359 358 356 355 354 352 349 347 345 343 343
107 108 111 113 108 98 87 80 81 84 80 71 62 57 52 47 43 39 36 33 30 27 26 24 21 19 18 16 15 14 13 12 11 11 11 11 12 12 12 12 12 13 13 13 13 14 14 13 12 12 11 11 12 12 11 11 11 11 10 10 9 8 8 7 7 9 9 9 9 9 7 6 4 2 1 1 3 2 1 359 357 356 354 351 348 347 346 346
110 114 118 115 106 96 87 84 87 86 78 67 60 54 49 44 40 36 33 30 27 25 23 21 19 17 15 14 13 11 11 11 10 10 10 10 10 11 11 11 11 11 12 12 12 13 13 13 12 12 11 11 11 12 12 11 11 11 11 11 9 8 7 8 9 9 9 10 10 9 8 7 5 4 3 3 4 5 3 1 359 357 356 354 352 350 350 349
116 119 120 113 104 96 89 89 90 84 73 64 57 51 46 41 38 34 30 28 25 23 21 19 17 15 13 12 11 10 10 10 10 9 9 9 9 9 9 9 9 10 10 11 12 12 13 13 12 12 12 11 11 11 12 12 11 10 10 10 10 8 8 9 10 10 9 10 10 9 9 8 7 6 4 4 4 5 5 3 1 359 358 356 355 353 352 352
120 123 121 114 106 97 93 93 90 81 70 61 53 48 43 38 35 31 28 25 23 20 18 17 15 13 12 11 10 10 10 10 10 9 8 8 8 8 8 8 8 9 10 10 11 12 12 12 12 12 12 12 11 11 11 11 11 10 10 10 10 10 9 9 10 10 10 10 10 10 9 9 9 7 5 4 4 5 5 4 3 2 0 358 357 355 354 354
Height
10706 10710 10714 10717 10722 10727 10729 10730 10732 10734 10735 10737 10738 10739 10740 10741 10742 10743 10743 10744 10745 10745 10745 10744 10744 10743 10743 10742 10741 10740 10739 10738 10737 10735 10733 10731 10729 10727 10725 10722 10719 10715 10712 10709 10705 10702 10699 10696 10692 10689 10685 10681 10678 10674 10669 10665 10661 10657 10652 10647 10643 10638 10634 10631 10628 10625 10621 10617 10613 10610 10606 10602 10598 10594 10590 10586 10582 10578 10573 10570 10567 10564 10560 10558 10556 10553 10550 10548
10705 10710 10713 10718 10723 10726 10728 10729 10731 10733 10735 10736 10737 10738 10739 10740 10741 10742 10742 10743 10743 10743 10743 10743 10742 10742 10741 10740 10739 10738 10736 10735 10733 10732 10730 10728 10726 10723 10720 10717 10714 10710 10707 10703 10700 10696 10693 10689 10685 10682 10678 10673 10669 10665 10661 10656 10652 10648 10643 10638 10633 10629 10625 10621 10618 10615 10611 10606 10603 10600 10596 10591 10587 10583 10578 10575 10571 10566 10562 10558 10555 10552 10547 10545 10543 10541 10538 10536
10705 10709 10713 10717 10721 10724 10727 10728 10730 10732 10734 10735 10736 10737 10738 10739 10740 10741 10741 10741 10741 10741 10741 10741 10741 10740 10739 10737 10736 10735 10734 10732 10730 10729 10727 10725 10722 10719 10716 10713 10709 10705 10702 10698 10694 10690 10686 10683 10679 10675 10670 10666 10661 10657 10652 10647 10643 10639 10634 10630 10624 10620 10615 10611 10607 10603 10600 10596 10593 10589 10585 10581 10576 10572 10567 10564 10560 10555 10551 10547 10543 10539 10535 10532 10530 10528 10525 10523
10704 10709 10713 10717 10720 10722 10725 10727 10729 10731 10733 10734 10735 10736 10737 10738 10739 10740 10740 10739 10739 10740 10739 10739 10739 10738 10736 10735 10733 10732 10731 10729 10727 10725 10723 10721 10718 10714 10711 10708 10704 10700 10696 10693 10689 10685 10680 10676 10672 10667 10662 10658 10653 10648 10643 10639 10634 10630 10626 10621 10615 10610 10606 10601 10597 10593 10589 10585 10582 10578 10574 10570 10566 10561 10557 10553 10550 10546 10541 10537 10533 10528 10523 10520 10517 10515 10513 10511
10704 10709 10713 10716 10718 10721 10724 10726 10728 10730 10732 10733 10734 10735 10736 10737 10737 10738 10737 10738 10738 10738 10737 10737 10736 10735 10734 10733 10731 10729 10728 10726 10724 10722 10719 10716 10713 10710 10706 10702 10698 10694 10691 10687 10683 10679 10674 10669 10664 10660 10655 10650 10644 10639 10635 10630 10626 10621 10617 10613 10607 10601 10597 10592 10588 10583 10580 10575 10572 10568 10563 10559 10554 10549 10546 10543 10540 10536 10532 10528 10523 10519 10513 10509 10506 10503 10501 10498
10703 10708 10712 10715 10717 10720 10723 10725 10727 10729 10730 10732 10733 10734 10734 10735 10735 10736 10736 10736 10736 10736 10735 10734 10733 10732 10731 10730 10729 10727 10725 10723 10720 10718 10715 10711 10708 10704 10701 10697 10693 10689 10685 10681 10677 10672 10668 10662 10657 10652 10648 10642 10637 10631 10627 10622 10618 10613 10608 10604 10599 10594 10589 10584 10579 10575 10571 10566 10562 10558 10553 10548 10542 10537 10533 10531 10530 10526 10522 10518 10513 10508 10504 10500 10496 10493 10490 10486
10703 10708 10711 10713 10716 10719 10722 10724 10726 10728 10729 10730 10731 10732 10733 10733 10734 10735 10735 10735 10734 10733 10732 10732 10731 10730 10729 10728 10726 10724 10722 10719 10716 10713 10710 10706 10702 10699 10695 10691 10687 10683 10679 10674 10670 10666 10661 10656 10651 10646 10641 10635 10630 10624 10620 10615 10611 10606 10600 10595 10591 10586 10581 10576 10572 10567 10562 10557 10553 10549 10543 10537 10530 10525 10520 10519 10519 10515 10510 10506 10502 10497 10493 10489 10485 10481 10478 10475
10702 10707 10710 10712 10715 10718 10721 10723 10725 10726 10728 10729 10730 10731 10731 10732 10733 10734 10734 10733 10732 10731 10730 10729 10729 10728 10727 10725 10723 10721 10718 10715 10712 10708 10705 10701 10697 10693 10689 10685 10681 10677 10673 10668 10663 10659 10654 10649 10644 10639 10634 10629 10623 10618 10613 10608 10603 10598 10593 10587 10583 10579 10573 10568 10564 10560 10554 10549 10545 10540 10533 10526 10518 10511 10507 10507 10506 10502 10498 10495 10489 10485 10481 10477 10472 10468 10465 10462
10701 10705 10709 10711 10714 10717 10720 10722 10723 10725 10727 10728 10728 10729 10730 10731 10732 10732 10732 10731 10730 10729 10728 10728 10727 10725 10724 10722 10720 10717 10713 10710 10707 10703 10700 10696 10692 10688 10683 10679 10675 10671 10666 10661 10657 10652 10647 10642 10637 10633 10628 10622 10616 10611 10606 10602 10597 10591 10585 10580 10575 10571 10564 10559 10555 10551 10545 10540 10535 10530 10524 10516 10505 10497 10495 10496 10494 10490 10487 10482 10476 10473 10469 10465 10460 10456 10452 10448
10700 10704 10708 10711 10713 10716 10719 10721 10722 10724 10725 10726 10727 10729 10730 10730 10730 10730 10729 10729 10728 10728 10727 10726 10725 10723 10721 10718 10716 10713 10709 10706 10702 10699 10695 10691 10687 10683 10678 10674 10669 10665 10660 10655 10650 10646 10642 10637 10631 10626 10621 10615 10610 10605 10600 10595 10590 10584 10578 10572 10568 10562 10556 10550 10545 10540 10536 10531 10526 10520 10515 10507 10494 10484 10482 10484 10482 10477 10473 10467 10463 10460 10456 10452 10448 10443 10439 10435
10700 10704 10707 10710 10713 10716 10718 10719 10721 10723 10724 10725 10727 10728 10728 10728 10728 10728 10727 10727 10727 10726 10725 10724 10722 10720 10717 10714 10712 10708 10705 10702 10698 10694 10690 10687 10683 10678 10674 10669 10664 10659 10655 10650 10645 10641 10636 10631 10626 10621 10615 10610 10604 10599 10594 10589 10583 10577 10571 10564 10559 10554 10547 10541 10535 10530 10525 10521 10516 10511 10505 10497 10483 10475 10472 10471 10469 10463 10458 10452 10448 10445 10441 10437 10433 10428 10425 10421
10700 10703 10707 10710 10713 10715 10717 10719 10721 10722 10723 10725 10726 10726 10727 10727 10726 10726 10726 10726 10725 10724 10723 10721 10719 10717 10714 10711 10708 10704 10701 10697 10694 10690 10686 10682 10678 10674 10669 10664 10659 10654 10650 10644 10639 10635 10631 10625 10620 10615 10610 10604 10598 10593 10588 10582 10576 10569 10564 10557 10552 10546 10539 10533 10527 10521 10515 10511 10505 10500 10497 10486 10471 10466 10463 10459 10455 10449 10444 10439 10434 10430 10425 10420 10416 10412 10408 10406
10700 10703 10706 10709 10712 10714 10716 10718 10720 10721 10723 10724 10724 10725 10725 10725 10725 10725 10725 10724 10724 10722 10721 10718 10716 10713 10710 10707 10704 10700 10697 10693 10689 10686 10682 10678 10674 10670 10665 10659 10654 10649 10644 10639 10634 10629 10625 10620 10615 10610 10604 10598 10592 10587 10582 10576 10570 10564 10557 10551 10546 10539 10530 10525 10521 10513 10507 10503 10495 10488 10489 10479 10462 10456 10453 10447 10442 10436 10431 10426 10421 10416 10410 10406 10400 10395 10392 10391
10700 10703 10706 10709 10711 10713 10715 10717 10719 10720 10722 10722 10723 10723 10724 10724 10724 10724 10723 10723 10721 10720 10718 10715 10712 10709 10706 10703 10700 10696 10693 10689 10686 10682 10678 10674 10670 10665 10660 10655 10650 10645 10640 10635 10630 10625 10620 10615 10610 10604 10599 10593 10587 10581 10576 10570 10564 10558 10551 10544 10538 10532 10521 10513 10510 10506 10498 10493 10485 10476 10477 10472 10456 10449 10445 10437 10430 10423 10418 10413 10408 10403 10397 10392 10386 10382 10379 10376
10700 10703 10706 10708 10710 10712 10714 10716 10718 10719 10720 10721 10722 10722 10723 10723 10722 10722 10721 10720 10719 10717 10714 10712 10709 10706 10703 10699 10696 10692 10689 10686 10683 10678 10674 10670 10666 10662 10657 10652 10647 10642 10637 10632 10627 10622 10617 10612 10607 10601 10595 10589 10583 10577 10571 10564 10557 10551 10544 10536 10529 10524 10515 10502 10495 10493 10488 10481 10473 10465 10463 10459 10448 10440 10434 10426 10419 10412 10406 10400 10395 10390 10384 10378 10373 10370 10366 10360
10700 10703 10705 10707 10709 10712 10714 10716 10717 10718 10719 10720 10721 10721 10721 10721 10721 10720 10719 10718 10716 10713 10711 10708 10705 10702 10699 10696 10692 10689 10686 10683 10679 10675 10671 10666 10662 10658 10653 10649 10644 10639 10634 10630 10625 10619 10614 10609 10603 10598 10591 10585 10579 10574 10568 10560 10552 10544 10537 10530 10521 10515 10508 10496 10483 10478 10475 10468 10460 10452 10448 10445 10436 10428 10421 10413 10407 10400 10393 10387 10381 10375 10370 10364 10360 10356 10350 10344
10700 10702 10705 10707 10709 10711 10713 10715 10716 10717 10718 10719 10719 10720 10720 10720 10719 10718 10717 10715 10713 10710 10708 10705 10702 10699 10696 10693 10690 10687 10683 10680 10675 10671 10667 10662 10658 10654 10650 10646 10642 10637 10632 10627 10622 10616 10610 10604 10598 10592 10586 10579 10573 10567 10561 10555 10547 10538 10529 10521 10513 10505 10498 10489 10477 10468 10463 10455 10446 10438 10432 10428 10421 10412 10407 10400 10393 10386 10380 10373 10367 10361 10355 10350 10345 10339 10334 10330
10699 10702 10705 10707 10709 10711 10712 10714 10715 10716 10717 10718 10718 10719 10719 10718 10717 10716 10714 10712 10709 10707 10704 10701 10698 10696 10693 10690 10687 10684 10680 10676 10672 10667 10663 10659 10655 10651 10647 10644 10640 10635 10630 10624 10619 10614 10608 10601 10594 10587 10579 10573 10566 10559 10552 10545 10538 10530 10522 10512 10504 10496 10486 10478 10469 10462 10456 10446 10436 10428 10420 10414 10405 10395 10389 10383 10376 10370 10364 10358 10353 10346 10341 10336 10330 10325 10320 10316
10699 10703 10705 10707 10709 10710 10712 10713 10714 10715 10716 10717 10717 10717 10717 10716 10714 10713 10711 10709 10706 10704 10701 10698 10695 10693 10691 10688 10685 10681 10676 10672 10668 10664 10660 10656 10653 10649 10645 10642 10637 10632 10627 10620 10614 10609 10603 10596 10589 10581 10574 10567 10559 10552 10543 10536 10529 10521 10513 10503 10496 10489 10479 10467 10458 10451 10446 10438 10427 10417 10410 10404 10394 10383 10373 10365 10358 10352 10345 10339 10335 10329 10325 10321 10316 10310 10306 10301
10700 10703 10705 10707 10708 10710 10711 10712 10714 10715 10715 10716 10716 10715 10714 10713 10711 10710 10708 10706 10704 10701 10698 10696 10693 10691 10687 10684 10680 10677 10673 10669 10665 10661 10658 10655 10651 10647 10644 10639 10634 10629 10622 10616 10610 10604 10598 10591 10583 10576 10568 10560 10553 10545 10537 10529 10522 10513 10504 10494 10486 10480 10472 10459 10448 10441 10432 10425 10417 10405 10397 10391 10382 10373 10362 10351 10343 10337 10329 10322 10317 10313 10308 10304 10300 10294 10290 10285
10700 10703 10705 10706 10708 10709 10710 10712 10713 10714 10714 10714 10713 10712 10711 10710 10709 10707 10705 10703 10701 10698 10696 10694 10692 10689 10685 10681 10677 10674 10670 10667 10664 10660 10657 10654 10650 10646 10642 10637 10632 10625 10619 10613 10607 10601 10593 10586 10579 10571 10563 10556 10547 10539 10530 10522 10515 10507 10496 10487 10477 10469 10462 10449 10436 10430 10420 10411 10406 10394 10385 10379 10370 10361 10351 10341 10333 10324 10317 10311 10305 10300 10294 10289 10284 10279 10274 10270
10700 10702 10704 10706 10707 10708 10710 10711 10712 10712 10712 10712 10711 10710 10709 10707 10706 10705 10703 10701 10698 10696 10694 10692 10689 10686 10683 10680 10677 10673 10670 10667 10663 10660 10656 10652 10648 10643 10639 10634 10628 10622 10616 10610 10604 10598 10589 10582 10575 10567 10559 10551 10542 10533 10523 10514 10506 10499 10488 10478 10468 10458 10453 10443 10428 10418 10409 10400 10395 10385 10375 10368 10358 10349 10338 10329 10322 10313 10305 10299 10292 10286 10280 10274 10269 10264 10259 10254
10699 10701 10703 10705 10706 10708 10709 10710 10710 10711 10710 10710 10709 10708 10707 10705 10704 10702 10700 10698 10697 10695 10692 10689 10686 10684 10681 10678 10675 10672 10669 10666 10662 10658 10654 10649 10644 10640 10635 10630 10625 10619 10612 10606 10600 10593 10585 10578 10570 10562 10554 10545 10536 10526 10517 10506 10495 10487 10479 10468 10459 10447 10439 10435 10426 10415 10402 10390 10385 10376 10366 10358 10347 10336 10327 10318 10311 10303 10295 10287 10278 10271 10264 10259 10254 10249 10244 10238
10699 10701 10703 10704 10706 10707 10708 10709 10709 10709 10708 10708 10707 10706 10705 10703 10701 10699 10698 10697 10695 10693 10690 10687 10685 10682 10679 10677 10674 10671 10667 10664 10660 10655 10650 10645 10641 10636 10631 10627 10621 10615 10609 10602 10596 10589 10581 10573 10564 10556 10547 10538 10529 10520 10510 10501 10488 10477 10468 10457 10449 10439 10428 10420 10413 10408 10397 10382 10371 10363 10355 10348 10336 10324 10317 10309 10301 10294 10284 10273 10264 10258 10251 10245 10239 10233 10227 10222
10699 10701 10702 10704 10705 10706 10707 10708 10708 10707 10707 10706 10705 10704 10702 10701 10699 10698 10697 10696 10693 10691 10688 10686 10683 10680 10678 10675 10673 10669 10665 10661 10656 10652 10647 10644 10639 10633 10628 10624 10619 10613 10606 10599 10592 10584 10574 10566 10557 10549 10541 10532 10523 10515 10505 10496 10485 10473 10461 10451 10441 10432 10420 10408 10398 10392 10386 10373 10360 10349 10341 10334 10324 10313 10304 10298 10290 10281 10271 10261 10253 10246 10239 10231 10224 10218 10212 10206
10699 10701 10702 10704 10705 10706 10706 10706 10706 10706 10705 10704 10703 10702 10700 10699 10698 10697 10696 10694 10691 10689 10687 10685 10682 10679 10677 10674 10671 10667 10663 10659 10654 10650 10646 10641 10635 10630 10626 10621 10616 10609 10601 10594 10586 10578 10568 10559 10551 10542 10534 10526 10517 10508 10498 10488 10479 10468 10457 10446 10434 10423 10411 10399 10388 10379 10372 10362 10348 10336 10326 10318 10312 10303 10293 10285 10277 10268 10258 10251 10243 10235 10227 10219 10211 10204 10199 10193
10699 10701 10702 10703 10704 10705 10705 10705 10704 10704 10703 10702 10701 10700 10699 10698 10697 10696 10694 10692 10690 10688 10686 10684 10681 10679 10676 10673 10669 10665 10661 10657 10653 10649 10644 10638 10633 10628 10622 10616 10610 10604 10597 10588 10580 10571 10563 10554 10546 10537 10527 10519 10511 10501 10492 10483 10472 10462 10451 10439 10428 10416 10404 10391 10380 10369 10360 10350 10338 10325 10314 10307 10303 10293 10281 10273 10264 10256 10249 10241 10232 10223 10215 10207 10199 10192 10186 10179
10699 10700 10702 10703 10703 10703 10703 10703 10703 10702 10701 10700 10700 10699 10698 10697 10696 10694 10693 10691 10689 10686 10684 10682 10680 10677 10674 10671 10667 10664 10660 10655 10651 10646 10641 10636 10630 10624 10617 10611 10605 10598 10591 10583 10574 10567 10559 10550 10541 10532 10522 10512 10503 10495 10486 10477 10467 10455 10444 10432 10421 10410 10397 10383 10371 10361 10350 10339 10328 10316 10303 10297 10297 10286 10272 10264 10255 10247 10241 10231 10222 10214 10205 10198 10190 10182 10175 10167
10698 10700 10700 10701 10701 10701 10702 10701 10701 10700 10700 10699 10699 10698 10698 10696 10695 10693 10692 10690 10688 10686 10684 10682 10679 10676 10673 10669 10665 10661 10657 10653 10649 10644 10639 10634 10628 10621 10614 10608 10600 10592 10584 10578 10572 10563 10554 10546 10536 10528 10519 10508 10497 10489 10480 10469 10459 10448 10438 10427 10415 10403 10390 10375 10364 10355 10343 10332 10319 10306 10295 10288 10289 10282 10265 10255 10248 10239 10231 10222 10213 10205 10197 10190 10181 10173 10166 10157
10697 10698 10699 10699 10700 10700 10700 10700 10700 10699 10699 10698 10698 10698 10697 10695 10694 10692 10691 10689 10688 10686 10684 10682 10679 10675 10672 10667 10663 10660 10656 10652 10647 10642 10636 10630 10624 10617 10610 10602 10594 10586 10580 10573 10567 10560 10551 10543 10534 10525 10516 10505 10493 10481 10471 10461 10451 10440 10431 10423 10411 10399 10385 10369 10358 10348 10337 10327 10314 10300 10289 10279 10277 10273 10258 10247 10240 10230 10221 10212 10204 10196 10188 10180 10171 10162 10154 10146
10696 10697 10698 10698 10699 10699 10699 10699 10698 10698 10698 10698 10698 10697 10696 10694 10693 10692 10690 10689 10687 10685 10683 10680 10677 10673 10669 10665 10662 10658 10654 10649 10643 10638 10632 10626 10620 10614 10607 10600 10594 10587 10580 10571 10564 10558 10550 10541 10532 10522 10512 10503 10492 10478 10465 10453 10443 10432 10421 10412 10403 10395 10384 10368 10356 10344 10329 10318 10305 10292 10283 10273 10265 10260 10249 10239 10230 10219 10209 10201 10192 10185 10177 10169 10159 10151 10143 10134
10695 10696 10697 10698 10698 10698 10698 10698 10698 10698 10698 10698 10698 10697 10695 10694 10693 10691 10690 10688 10687 10685 10682 10678 10675 10671 10668 10665 10661 10657 10652 10647 10643 10638 10633 10628 10622 10616 10610 10604 10597 10590 10582 10572 10562 10554 10546 10537 10527 10517 10506 10496 10487 10477 10466 10452 10438 10426 10413 10401 10389 10380 10374 10362 10350 10341 10327 10310 10294 10281 10273 10266 10258 10248 10238 10229 10219 10207 10197 10188 10180 10173 10165 10157 10147 10139 10131 10123
10695 10696 10696 10697 10697 10697 10697 10697 10698 10698 10698 10698 10697 10696 10695 10694 10692 10691 10689 10688 10686 10683 10680 10677 10673 10670 10667 10664 10660 10656 10651 10647 10643 10638 10633 10628 10622 10615 10608 10601 10595 10587 10578 10569 10559 10551 10544 10534 10522 10511 10499 10487 10477 10468 10460 10448 10432 10417 10404 10390 10374 10359 10350 10340 10330 10326 10319 10303 10285 10269 10260 10256 10250 10240 10229 10220 10210 10200 10190 10180 10171 10164 10156 10146 10137 10128 10121 10112
10694 10695 10695 10696 10696 10696 10697 10697 10698 10698 10698 10698 10697 10695 10694 10693 10692 10691 10689 10688 10685 10682 10679 10676 10673 10670 10667 10664 10659 10655 10651 10647 10642 10637 10631 10625 10618 10612 10606 10599 10592 10584 10575 10566 10555 10545 10537 10529 10517 10505 10492 10479 10467 10456 10445 10434 10422 10409 10395 10381 10366 10349 10336 10325 10311 10302 10301 10294 10277 10261 10251 10245 10242 10233 10221 10212 10202 10192 10182 10172 10162 10155 10146 10136 10126 10117 10109 10102
10693 10694 10695 10695 10696 10697 10697 10698 10698 10698 10698 10697 10696 10695 10694 10693 10692 10691 10689 10687 10684 10681 10679 10676 10674 10671 10667 10663 10659 10654 10651 10646 10641 10636 10630 10624 10618 10612 10605 10598 10590 10582 10574 10565 10554 10541 10529 10520 10510 10499 10487 10473 10460 10449 10438 10427 10416 10404 10391 10377 10362 10346 10332 10323 10311 10296 10288 10284 10271 10254 10244 10238 10232 10224 10213 10202 10192 10181 10170 10160 10150 10141 10132 10122 10112 10103 10095 10089
10693 10694 10695 10696 10697 10697 10698 10698 10698 10698 10698 10697 10695 10695 10695 10693 10692 10690 10688 10686 10683 10681 10678 10676 10673 10669 10665 10662 10658 10654 10649 10645 10640 10634 10628 10623 10617 10611 10603 10596 10588 10580 10572 10563 10554 10541 10527 10515 10505 10495 10483 10470 10455 10440 10427 10418 10407 10397 10386 10375 10363 10347 10327 10313 10308 10299 10287 10281 10269 10247 10236 10231 10222 10213 10203 10192 10181 10172 10161 10149 10137 10125 10117 10109 10100 10092 10084 10077
10694 10695 10695 10696 10697 10698 10698 10698 10698 10698 10697 10696 10695 10695 10695 10693 10692 10690 10688 10685 10683 10680 10677 10675 10671 10668 10664 10660 10656 10652 10647 10642 10638 10632 10627 10622 10616 10609 10601 10593 10585 10577 10569 10561 10551 10540 10527 10514 10503 10493 10481 10468 10454 10439 10424 10411 10400 10389 10378 10368 10359 10349 10329 10304 10290 10284 10274 10268 10261 10239 10220 10215 10208 10198 10190 10181 10171 10163 10153 10143 10132 10119 10109 10100 10092 10084 10076 10068
10695 10696 10696 10697 10698 10698 10699 10699 10698 10698 10696 10695 10696 10696 10695 10693 10691 10689 10687 10685 10682 10680 10677 10674 10671 10667 10663 10659 10655 10650 10646 10641 10636 10631 10626 10620 10614 10607 10599 10591 10583 10574 10566 10558 10548 10538 10527 10514 10501 10490 10479 10466 10453 10440 10426 10412 10399 10386 10374 10361 10348 10338 10326 10304 10280 10265 10253 10245 10243 10232 10212 10202 10197 10186 10177 10170 10162 10155 10148 10140 10129 10117 10105 10095 10086 10079 10072 10064
10696 10697 10698 10698 10698 10699 10699 10699 10698 10697 10696 10696 10697 10696 10694 10693 10691 10689 10687 10684 10682 10680 10677 10674 10670 10666 10662 10659 10654 10650 10645 10641 10636 10630 10625 10618 10610 10603 10596 10588 10581 10572 10563 10555 10546 10536 10525 10513 10498 10485 10474 10464 10454 10443 10431 10418 10405 10390 10375 10362 10347 10332 10320 10306 10282 10262 10246 10233 10227 10222 10207 10193 10185 10177 10169 10162 10154 10145 10138 10130 10120 10110 10099 10088 10079 10071 10065 10058
10697 10698 10698 10699 10699 10699 10699 10699 10698 10696 10696 10697 10697 10696 10694 10692 10690 10688 10687 10684 10682 10679 10676 10673 10669 10665 10661 10657 10653 10649 10644 10639 10634 10628 10622 10615 10608 10601 10594 10586 10578 10569 10560 10551 10543 10534 10524 10512 10499 10486 10473 10462 10449 10436 10423 10410 10397 10385 10370 10354 10340 10327 10315 10306 10291 10269 10251 10233 10216 10206 10198 10188 10179 10170 10161 10152 10143 10133 10124 10115 10105 10095 10086 10076 10067 10060 10055 10049
10698 10698 10699 10699 10699 10699 10699 10697 10696 10697 10698 10698 10697 10695 10694 10692 10690 10689 10687 10684 10682 10679 10675 10672 10668 10664 10660 10656 10651 10647 10643 10637 10632 10626 10619 10613 10606 10599 10591 10584 10576 10567 10559 10549 10540 10532 10524 10513 10501 10488 10476 10463 10448 10433 10419 10404 10389 10375 10363 10348 10332 10318 10304 10295 10287 10274 10256 10237 10218 10200 10188 10180 10172 10163 10153 10142 10131 10120 10111 10103 10093 10082 10073 10065 10057 10049 10043 10038
10698 10699 10700 10699 10700 10700 10698 10696 10697 10699 10699 10698 10697 10695 10694 10692 10690 10689 10687 10684 10681 10678 10674 10671 10667 10663 10659 10654 10650 10646 10641 10636 10630 10624 10617 10610 10604 10597 10589 10582 10574 10566 10558 10548 10538 10529 10522 10515 10505 10492 10477 10463 10452 10440 10426 10411 10395 10378 10363 10349 10332 10316 10298 10281 10268 10258 10248 10238 10228 10213 10193 10176 10164 10154 10144 10135 10123 10111 10100 10091 10083 10074 10065 10057 10051 10043 10035 10028
10699 10700 10700 10700 10700 10699 10697 10697 10699 10700 10699 10698 10697 10696 10694 10692 10691 10689 10686 10683 10680 10677 10674 10670 10667 10662 10658 10654 10649 10645 10640 10635 10629 10622 10616 10609 10602 10595 10588 10580 10573 10565 10556 10545 10535 10525 10517 10510 10505 10497 10487 10473 10459 10445 10428 10410 10395 10379 10363 10349 10333 10316 10300 10282 10265 10254 10244 10234 10227 10218 10200 10180 10164 10149 10136 10125 10116 10106 10095 10085 10078 10070 10061 10052 10045 10038 10031 10024
10700 10701 10701 10701 10700 10699 10698 10699 10701 10700 10699 10698 10697 10695 10694 10692 10690 10688 10686 10683 10680 10677 10673 10669 10665 10661 10657 10653 10649 10644 10639 10633 10628 10622 10615 10609 10601 10594 10587 10579 10571 10563 10554 10543 10532 10520 10509 10500 10492 10485 10479 10471 10459 10446 10430 10411 10392 10374 10356 10342 10330 10316 10302 10290 10276 10263 10250 10233 10222 10215 10204 10185 10166 10150 10135 10123 10112 10103 10093 10083 10074 10065 10057 10049 10041 10032 10025 10017
10701 10702 10702 10701 10700 10699 10699 10701 10701 10700 10699 10698 10697 10695 10694 10692 10690 10688 10685 10682 10679 10676 10672 10669 10665 10661 10657 10652 10648 10643 10638 10632 10626 10620 10614 10607 10600 10593 10586 10578 10570 10561 10552 10541 10530 10518 10506 10493 10480 10468 10456 10445 10433 10421 10410 10399 10385 10370 10355 10341 10329 10315 10302 10291 10278 10265 10253 10237 10217 10202 10193 10181 10166 10154 10143 10130 10117 10104 10092 10080 10069 10059 10050 10043 10035 10028 10019 10011
10702 10702 10702 10702 10701 10700 10701 10701 10701 10700 10700 10698 10697 10695 10694 10692 10690 10687 10684 10681 10678 10675 10671 10668 10664 10660 10656 10651 10647 10641 10636 10630 10625 10619 10612 10606 10599 10592 10585 10577 10569 10560 10550 10541 10531 10519 10507 10493 10479 10466 10453 10440 10427 10414 10401 10390 10379 10369 10357 10343 10329 10314 10301 10289 10277 10263 10251 10237 10216 10192 10177 10168 10158 10147 10138 10129 10118 10104 10089 10077 10066 10056 10046 10036 10027 10019 10012 10004
10702 10702 10702 10702 10702 10701 10702 10702 10701 10701 10700 10698 10697 10695 10693 10691 10689 10686 10683 10681 10678 10674 10671 10667 10663 10659 10655 10650 10645 10640 10634 10629 10623 10617 10611 10604 10598 10591 10584 10576 10568 10560 10551 10542 10532 10521 10509 10497 10483 10469 10457 10444 10431 10418 10404 10391 10379 10368 10356 10341 10328 10318 10305 10291 10278 10261 10243 10226 10212 10195 10179 10166 10152 10138 10127 10119 10111 10099 10085 10072 10060 10050 10039 10029 10020 10012 10006 9999
10702 10703 10703 10703 10703 10703 10703 10702 10702 10701 10700 10699 10697 10695 10693 10691 10689 10686 10683 10680 10677 10674 10670 10667 10663 10659 10654 10649 10644 10639 10633 10628 10622 10616 10610 10604 10597 10590 10583 10576 10568 10560 10552 10543 10533 10523 10512 10501 10489 10476 10462 10448 10435 10422 10410 10397 10383 10370 10357 10344 10330 10318 10305 10290 10273 10255 10234 10215 10202 10191 10177 10162 10150 10139 10128 10117 10105 10092 10077 10064 10054 10044 10034 10025 10017 10009 10002 9996
10703 10703 10704 10704 10704 10703 10703 10702 10702 10701 10700 10698 10697 10695 10693 10691 10688 10686 10683 10680 10677 10674 10670 10666 10663 10659 10654 10650 10645 10640 10634 10628 10622 10616 10610 10603 10596 10589 10582 10575 10568 10560 10552 10543 10533 10524 10513 10503 10492 10480 10467 10453 10440 10427 10414 10401 10389 10375 10360 10347 10332 10317 10302 10284 10264 10246 10230 10214 10201 10188 10174 10161 10149 10138 10125 10113 10102 10088 10073 10060 10050 10042 10035 10025 10016 10008 10000 9993
10703 10704 10705 10705 10704 10703 10703 10703 10702 10702 10700 10698 10697 10695 10693 10691 10688 10686 10683 10680 10677 10673 10670 10666 10663 10659 10654 10649 10645 10639 10634 10628 10622 10615 10609 10602 10595 10588 10581 10573 10566 10558 10550 10542 10533 10524 10515 10504 10493 10482 10471 10459 10446 10433 10418 10402 10389 10376 10363 10349 10334 10316 10298 10278 10257 10240 10228 10215 10200 10187 10176 10165 10149 10132 10117 10105 10097 10088 10076 10062 10050 10041 10033 10024 10013 10004 9996 9990
10704 10705 10705 10705 10705 10704 10704 10703 10702 10701 10700 10698 10696 10695 10693 10690 10688 10685 10683 10680 10676 10673 10670 10666 10662 10658 10653 10648 10643 10638 10632 10627 10620 10614 10607 10600 10593 10587 10580 10572 10564 10557 10548 10540 10532 10524 10515 10505 10495 10484 10473 10460 10446 10435 10422 10407 10393 10380 10366 10350 10330 10308 10287 10270 10253 10236 10221 10209 10199 10188 10176 10162 10145 10128 10114 10102 10092 10085 10076 10065 10052 10039 10028 10018 10009 10001 9993 9986
10705 10705 10705 10705 10705 10704 10704 10703 10702 10701 10700 10698 10696 10695 10692 10690 10688 10685 10682 10679 10676 10673 10669 10665 10661 10657 10652 10647 10642 10637 10631 10625 10619 10612 10605 10598 10592 10585 10578 10571 10563 10556 10548 10539 10531 10522 10513 10503 10493 10482 10471 10460 10447 10431 10419 10410 10398 10380 10359 10341 10324 10305 10284 10267 10254 10240 10223 10207 10195 10183 10168 10153 10139 10124 10109 10096 10087 10079 10071 10061 10049 10037 10026 10015 10006 9998 9991 9984